SPACEBEE-16 (46308 NORAD) Tracking and Keplerian Element Data

This shows tracking and keplerian element data for the satellite.

Feedback or suggestion? Click here.




ElementValue
Catalog46308
NameSPACEBEE-16
Epoch Orbit307
Epoch Day268.1421977
Epoch Year2020
RAAN340.9058
Inclination97.5182
Eccentricity0.000159
Argument of Perigee127.2824
Mean Anonmoly232.8551
Mean Motion15.10665197
Decay Rate1.984E-05
L11 46308U 20061AN 20268.14219770 .00001984 00000-0 12377-3 0 9994
L22 46308 97.5182 340.9058 0001590 127.2824 232.8551 15.10665197 3072

Live tracking and technical data element details for SPACEBEE-16 (NORAD 46308). SPACEBEE-16 can be tracked NOW for your location showing map with azimuth and elevation plus other details from your city location.

Track the satellite on the map from your city or location and see movement details for azimuth, elevation, latitude, longitude, range, height, and movement on the map or in text.







IsCatalogInMostPopularTable: catalog: 46308, numindb: 1
Update: records affected: 1



GetName: 46308 SPACEBEE-16

Hit Count: updated at: Sat, 26 Sep 2020 15:20:28 GMT